STARLINK-38311, 100625

Orbit data source: Space-Track

STARLINK-38311, 100625 is a payload satellite owned by SpaceX/Seattle (US) in LEO that was launched on Sun, 06 Sep 2026 UTC launched from the Air Force Western Test Range (AFWTR). Payload-class satellites include a variety of spacecraft equipped with specific instruments for various scientific and technological missions. These include communications satellites like Starlink; space stations such as the ISS; scientific satellites like the Hubble; Earth observation satellites from companies like Planet Labs, Umbra, and HawkEye 360; GPS; miniature CubeSats for education and research; and military/defense satellites.

Not visible in the next 10 days
Identifier
100625, 2026-204L
Orbit
LEO
Country
Flag of USUS
Related business
Manufacturer
SpaceX/Seattle
Mission
Operational spacecraft
Bus & Motor
STARLINK V2MO, Unknown motor
Mass
575 kg wet, ~530 kg dry
Launch date (UTC)
2026-09-06 (5 days ago)
Launch vehicle
Unknown
Launch site
Air Force Western Test Range (AFWTR)
Object type
Payload
Rocket body
Debris
Shape & HBR
BOX + PAN, 17.7 m
Radar Cross Section
RCS unknown

Expand to show TLE details & history
Last TLE update: 12 hours ago

TLE from 12 hours ago
0 STARLINK-38311
1 A0625U          26253.94039634  .00094725  77185-5  17193-3 0  9993
2 A0625  69.9972 265.1330 0007799 240.4926 119.5508 16.01414198   707
Epoch: 2026-09-10T22:34Z
TLE epoch observation values (Epoch: 2026-09-10T22:34:10.243Z)
Latitude
-0.00008°
Longitude
-63.3806°
Altitude
275.596 km
Speed
7.741 km/s
True Right ascension
17h 40m 31s
True Declination
0° 00' 00"
Sunlit
Object was in daylight at epoch
Visualization orbit readout
Latitude
Unknown
Longitude
Unknown
Altitude
Unknown
Speed
Unknown
Apparent Right ascension
Unknown
Apparent Declination
Unknown
Sunlit
N/A
Visualization observer readout
Local Sidereal Time
02:29:21
Azimuth
Unknown
Elevation
Unknown
Doppler factor
Unknown
Orbital elements
Apogee altitude
273.54 km
Perigee altitude
263.173 km
Semi-major axis
6,646.494 km
Eccentricity
0.00078
Inclination
69.9972°
RAAN
265.133°
Arg. of periapsis
240.4926°
True anomaly
119.62851°
Mean anomaly
119.5508°
Eccentric anomaly
119.58966°
Mean motion
4.00548 °/min
Orbital period
89.88 mins
BSTAR
0.00017193
Loading maneuver chart data...
Computing Atmospheric mass density...
Loading historical data...
Loading historical data...
Loading historical data...
Loading historical data...
Loading historical data...
Loading historical data...
Loading historical data...

Documentation

Showing up to 5 results
|